STARLINK-1608, 46146

Orbit data source: Space-Track

STARLINK-1608, 46146 is a payload satellite owned by SpaceX/Seattle (US) in LEO that was launched on Tue, 18 Aug 2020 UTC via an FALCON 9 launch vehicle from the Air Force Eastern Test Range (AFETR). Payloads include a variety of satellites, spacecraft, and rockets equipped with specific instruments for various scientific and technological missions. These include communications satellites like Starlink; space stations such as the ISS; scientific satellites like the Hubble; Earth observation satellites from companies like Planet Labs, Umbra, and HawkEye 360; GPS; miniature CubeSats for education and research; and military/defense satellites.

Loading next visibility...
STARLINK-1608 details
Identifier
46146, 2020-057AF
Orbit
LEO
Last TLE update13 hours ago
Origin
Flag of USSpaceX/Seattle (US)
ManufacturerSpaceX/Seattle
MissionOperational Commercial Communications
Bus & MotorSTARLINK, Unknown motor
Mass260 kg wet, ~248 kg dry
Launch date (UTC)
2020-08-18 (4 years ago)
Launch vehicle
FALCON 9
Launch site
Air Force Eastern Test Range (AFETR)
Object type
Payload
Rocket body
Debris
Shape & HBRBox + 1 Pan, 8.86 m
Radar Cross Section13.562 m², Large (>1 m²)

Expand to show TLE details & history

TLE from 13 hours ago
0 STARLINK-1608
1 46146U 20057AF  25023.96397295  .00012212  00000-0  83717-3 0  9994
2 46146  53.0582 355.9486 0004488 110.3207 249.8265 15.06403176244979
Epoch: 2025-01-23T23:08Z
Definitive object data (Epoch: 2025-01-23T23:08:07.262Z)
Latitude-0.00001°
Longitude-114.61561°
Altitude549.154 km
Speed7.588 km/s
True Right ascension23h 43m 47s
True Declination0° 00' 00"
Sunlit
Object was in daylight at TLE epoch
Visualization TLE readout
Latitude44.40141°
Longitude15.81668°
Altitude548.623 km
Speed7.595 km/s
Apparent Right ascension05h 04m 19s
Apparent Declination6° 52' 50"
Sunlit
Object is in full shadow
Visualization observer readout
Local Sidereal Time13:39:51
Azimuth302.469° NW
Elevation-23.648°
Doppler factor1
Orbital elements
Apogee altitude550.58 km
Perigee altitude544.364 km
Semi-major axis6,925.609 km
Eccentricity0.0004488
Inclination53.0582°
RAAN355.9486°
Arg. of periapsis110.3207°
True anomaly249.77824°
Mean anomaly249.8265°
Eccentric anomaly249.80237°
Mean motion3.76579 °/min
BSTAR0.00083717
Orbital period95.6 mins
Loading maneuver chart data...
Loading historical data...
Loading historical data...
Loading historical data...
Loading historical data...
Loading historical data...
Loading historical data...
Loading historical data...

STARLINK-1608 Visibility forecast

Observer location: undefined°, undefined

Span
Click to sort rows by Start time (UTC) header in descending order
Start Az.
Max El. time (UTC)
Max El. Az.
Max El.
End time (UTC)
End Az.
4 mins2025-01-24 23:10:00.749Z158.11° S2025-01-24 23:12:00.749Z128.433° SE13.864°2025-01-24 23:14:00.749Z97.375° ESE
6 mins2025-01-25 00:49:00.749Z238.348° WSW2025-01-25 00:51:00.749Z286.62° WNW43.863°2025-01-25 00:55:00.749Z47.463° ENE
4 mins2025-01-25 02:30:00.749Z315.785° NNW2025-01-25 02:31:00.749Z334.708° NNW18.313°2025-01-25 02:34:00.749Z24.866° NE
5 mins2025-01-25 05:51:00.749Z346.665° N2025-01-25 05:53:00.749Z26.897° NE21.003°2025-01-25 05:56:00.749Z75.63° E
6 mins2025-01-25 07:30:00.749Z305.892° NW2025-01-25 07:33:00.749Z175.767° S43.779°2025-01-25 07:36:00.749Z136.582° SSE
|